Flag for Germany Weather past 2 weeks in Schwäbisch Gmünd, Baden-Württemberg, Germany

Now
30 °F

Low clouds.


Feels Like: 22 °F
Forecast: 31 / 40 °F
Wind: 8 mph from West

Location: Stoetten

Current Time: Mar 4, 2015 at 9:06:06 AM

Latest Report: Mar 4, 2015 at 8:00 AM


Visibility: 31 mi

Pressure: 30.33 "Hg

Humidity: 93%

Dew point: 28 °F

Location of Schwäbisch GmündLocation

Historic Weather in Schwäbisch Gmünd — Graph

°F

Schwäbisch Gmünd temperature yesterday

Maximum temperature yesterday: 40 °F (at 4:00 PM)
Minimum temperature yesterday: 30 °F (at 8:00 AM)
Average temperature yesterday: 35 °F

Past Weeks' High & Low Weather Summary

 TemperatureHumidityPressure
High45 °F (Feb 20, 3:00 PM)100% (Feb 17, 8:00 PM)30.79 "Hg (Feb 17, 8:00 PM)
Low23 °F (Feb 19, 7:00 AM)36% (Feb 21, 1:00 AM)29.54 "Hg (Feb 21, 1:00 PM)
Average32 °F86%30.07 "Hg
* Reported Feb 17 8:00 AM — Mar 4 8:00 AM, Schwäbisch Gmünd, Weather by CustomWeather, © 2015

Note: Actual official high and low records may vary slightly from our data, if they occured in-between our weather recording intervals... More about our weather records

Advertising

Schwäbisch Gmünd weather history for previous 24 hours

 ConditionsComfort  
Time TempWeatherWind HumidityBarometerVisibility
8:00 AM
Wed, Mar 4
30 °FLow clouds.8 mph93%30.33 "Hg31 mi
7:00 AM31 °FLow clouds.7 mph98%30.30 "Hg11 mi
6:00 AM31 °FFog.6 mph100%30.29 "Hg19 mi
5:00 AM31 °FLow clouds.7 mph100%30.25 "Hg0 mi
4:00 AM31 °FSnow flurries. Low clouds.8 mph100%30.24 "Hg0 mi
3:00 AM31 °FLight snow. Low clouds.9 mph100%30.24 "Hg0 mi
2:00 AM32 °FLight snow. Low clouds.8 mph100%30.23 "Hg0 mi
1:00 AM37 °FOvercast.13 mph76%30.16 "Hg31 mi
12:00 AM39 °FOvercast.15 mph66%30.14 "Hg43 mi
11:00 PM
Tue, Mar 3
40 °FOvercast.14 mph61%30.13 "Hg43 mi
10:00 PM38 °FOvercast.8 mph68%30.16 "Hg43 mi
9:00 PM39 °FOvercast.7 mph64%30.15 "Hg47 mi
8:00 PM38 °FOvercast.8 mph65%30.16 "Hg47 mi
7:00 PM36 °FPassing clouds.6 mph69%30.16 "Hg47 mi
6:00 PM38 °FPartly sunny.7 mph65%30.15 "Hg47 mi
5:00 PM39 °FPartly sunny.7 mph61%30.15 "Hg47 mi
4:00 PM40 °FPartly sunny.6 mph60%30.16 "Hg47 mi
3:00 PM39 °FScattered clouds.7 mph60%30.17 "Hg47 mi
2:00 PM39 °FPassing clouds.7 mph61%30.19 "Hg47 mi
1:00 PM37 °FPassing clouds.9 mph65%30.22 "Hg47 mi
12:00 PM36 °FPassing clouds.10 mph67%30.25 "Hg47 mi
11:00 AM35 °FPassing clouds.12 mph67%30.26 "Hg47 mi
10:00 AM34 °FPassing clouds.9 mph70%30.26 "Hg47 mi
9:00 AM32 °FPassing clouds.7 mph76%30.26 "Hg47 mi
Weather by CustomWeather, © 2015

See weather overviewHow to use our weather pages